[[{"header":{"parameterUnit":"m.s-1","parameterCategory":1,"la1":30.2991,"la2":30.254,"lo1":-89.0895,"lo2":-89.0444,"dy":0.0017,"dx":0.0017,"nx":28,"ny":28,"refTime":"2023-11-10T03:00:00:Z","depth":0,"parameterNumber":2,"parameterNumberName":"U-component_of_WINDS"},"data":[0,0,0,0,0,0,0,0,0,0,0,0,0,0,0,0,0,0,0,0,0,0,0,0,0,0,0,0,0,0,0,0,0,0,0,0,0,0,0,0,0,0,0,0,0,0,0,0,0,0,0,0,0,0,0,0,0,0,-3.4277,-3.4277,0,-3.4272,-3.4272,-3.4272,-3.4192,-3.419,-3.4188,-3.4186,-3.4182,-3.4183,-3.4185,0,0,0,0,0,0,0,0,0,0,0,0,0,-3.422,-3.4221,-3.4277,-3.4277,-3.4277,-3.4272,-3.4272,-3.4272,-3.4193,-3.419,-3.4188,-3.4185,-3.4181,-3.4183,-3.4185,0,0,0,0,0,0,0,0,0,0,0,0,0,-3.4233,-3.4222,-3.4277,-3.4237,-3.4233,-3.4272,-3.4272,-3.4272,-3.4193,-3.419,-3.4187,-3.4184,-3.418,-3.4183,-3.4186,-3.4263,0,0,-3.4194,-3.4195,0,0,0,0,0,0,0,0,-3.4232,-3.4235,-3.4243,-3.424,-3.4236,-3.423,-3.425,-3.4269,-3.4194,-3.4208,-3.4186,-3.4183,-3.42,-3.4201,-3.4207,-3.4263,-3.4263,-3.4194,-3.4196,-3.4197,-3.4197,0,0,0,0,0,0,0,-3.4231,-3.4235,-3.4275,-3.4243,-3.4239,-3.4219,-3.4218,-3.4253,-3.4222,-3.4207,-3.4201,-3.4202,-3.4198,-3.4204,-3.4206,-3.4262,-3.4194,-3.4196,-3.4198,-3.4199,-3.4384,-3.4387,0,0,0,0,0,0,-3.4236,-3.4234,-3.4275,-3.4275,-3.4226,-3.4223,-3.4221,-3.4235,-3.4221,-3.4216,-3.4204,-3.4198,-3.4201,-3.4203,-3.4206,-3.4297,-3.4197,-3.4199,-3.4201,-3.438,-3.4384,-3.4388,0,0,0,0,0,0,-3.4235,-3.424,-3.4276,-3.4253,-3.4256,-3.4227,-3.4243,-3.4236,-3.4243,-3.4219,-3.4213,-3.4217,-3.4199,-3.4202,-3.425,-3.4296,-3.42,-3.4203,-3.4377,-3.4382,-3.4386,-3.448,0,0,0,0,0,0,-3.4234,-3.424,-3.4269,-3.4254,-3.4258,-3.432,-3.4246,-3.4238,-3.4248,-3.4239,-3.4229,-3.4225,-3.4197,-3.4246,-3.4252,-3.4298,-3.4205,-3.4372,-3.4379,-3.4385,-3.4473,-3.4487,-3.45,0,0,0,0,0,-3.4232,-3.4295,-3.4271,-3.4276,-3.4293,-3.4323,-3.4325,-3.4291,-3.4252,-3.4281,-3.4265,-3.4225,-3.4289,-3.4252,-3.4258,-3.4305,-3.4369,-3.4377,-3.4384,-3.4466,-3.4484,-3.45,0,0,0,0,0,0,-3.4316,-3.4293,-3.4265,-3.4326,-3.4327,-3.4309,-3.4345,-3.4311,-3.4323,-3.4315,-3.4273,-3.4272,-3.4327,-3.432,-3.4279,-3.438,-3.4322,-3.4331,-3.4383,-3.44,-3.4413,-3.4415,-3.4207,0,0,0,0,0,-3.4342,-3.4368,-3.4345,-3.4401,-3.4403,-3.4374,-3.4386,-3.436,-3.4359,-3.4359,-3.4347,-3.4349,-3.4369,-3.4383,-3.4401,-3.447,-3.4468,-3.4506,-3.452,-3.4531,-3.454,-3.4578,-3.4595,-3.4413,-3.4412,-3.4412,0,0,-3.4395,-3.4385,-3.4404,-3.4418,-3.4416,-3.4444,-3.4375,-3.4407,-3.4428,-3.4364,-3.4409,-3.4401,-3.4399,-3.4459,-3.4484,-3.4455,-3.459,-3.454,-3.455,-3.4553,-3.4588,-3.4605,-3.4621,-3.4418,-3.4417,-3.4416,0,0,-3.4507,-3.4502,-3.4549,-3.4548,-3.4545,-3.4526,-3.4537,-3.4525,-3.4517,-3.4561,-3.4514,-3.4538,-3.4574,-3.4576,-3.4581,-3.4695,-3.4659,-3.4702,-3.4774,-3.4812,-3.4827,-3.4839,-3.4882,-3.4898,-3.471,-3.471,-3.4711,0,-3.4574,-3.4615,-3.4577,-3.4613,-3.4622,-3.4565,-3.4613,-3.4613,-3.4617,-3.4624,-3.4591,-3.4636,-3.463,-3.4691,-3.4719,-3.4724,-3.4737,-3.4704,-3.4827,-3.484,-3.4851,-3.4891,-3.4907,-3.4716,-3.4715,-3.4715,-3.4714,0,-3.4698,-3.4727,-3.4765,-3.4771,-3.4783,-3.4825,-3.4794,-3.4811,-3.4784,-3.4769,-3.4815,-3.4807,-3.4823,-3.4835,-3.4808,-3.4892,-3.4874,-3.4835,-3.4776,-3.4875,-3.4912,-3.4927,-3.4724,-3.4722,-3.472,-3.4719,0,0,-3.4864,-3.4849,-3.4864,-3.4867,-3.486,-3.4882,-3.4921,-3.4937,-3.4953,-3.4957,-3.499,-3.5022,-3.4986,-3.4993,-3.4966,-3.4999,-3.5093,-3.4956,-3.4955,-3.4984,-3.5186,-3.5218,-3.5236,-3.5068,-3.507,-3.5073,-3.5187,0,-3.4975,-3.5042,-3.501,-3.5081,-3.5108,-3.5055,-3.5089,-3.509,-3.5076,-3.5097,-3.5081,-3.5106,-3.5055,-3.5059,-3.5089,-3.5075,-3.5133,-3.5066,-3.51,-3.5102,-3.5104,-3.5255,-3.5288,-3.5397,-3.5201,-3.5204,-3.5205,0,-3.5113,-3.5124,-3.5198,-3.5188,-3.5198,-3.523,-3.5242,-3.5263,-3.5262,-3.525,-3.5258,-3.5224,-3.5263,-3.5203,-3.5257,-3.5212,-3.5224,-3.5219,-3.5222,-3.5226,-3.5161,-3.5265,-3.543,-3.5448,-3.5227,-3.5226,-3.5224,0,-3.523,-3.5263,-3.5312,-3.5315,-3.5304,-3.5328,-3.5325,-3.5321,-3.5333,-3.5343,-3.5351,-3.5365,-3.5374,-3.5387,-3.5358,-3.5317,-3.5417,-3.5355,-3.5409,-3.541,-3.5434,-3.5434,-3.5606,-3.5438,-3.5438,-3.5438,-3.5437,0,-3.5358,-3.5406,-3.5365,-3.5395,-3.5448,-3.541,-3.5464,-3.5454,-3.5451,-3.548,-3.5433,-3.5461,-3.542,-3.5444,-3.5422,-3.5471,-3.5474,-3.5467,-3.5461,-3.5472,-3.5474,-3.5481,-3.5474,-3.5442,-3.5441,-3.544,-3.544,0,-3.5498,-3.5472,-3.5523,-3.5508,-3.5506,-3.5546,-3.5533,-3.5561,-3.5544,-3.5581,-3.5587,-3.5561,-3.5586,-3.5558,-3.5582,-3.5567,-3.5634,-3.5615,-3.5635,-3.563,-3.5688,-3.5684,-3.5873,-3.5896,-3.5711,-3.5713,-3.5715,0,-3.5583,-3.5619,-3.5608,-3.5624,-3.5624,-3.5649,-3.5662,-3.5625,-3.564,-3.5643,-3.5671,-3.5693,-3.5708,-3.5752,-3.5735,-3.5753,-3.5736,-3.5801,-3.5739,-3.575,-3.574,-3.574,-3.5744,-3.5815,-3.5817,-3.5819,-3.582,0,-3.5737,-3.5722,-3.5742,-3.5757,-3.5773,-3.5783,-3.579,-3.5806,-3.5768,-3.5787,-3.5813,-3.5825,-3.585,-3.5873,-3.5886,-3.5882,-3.5847,-3.584,-3.5854,-3.5868,-3.5878,-3.5876,-3.5672,-3.5836,-3.5835,-3.5834,-3.5833,-3.5832,-3.5854,-3.5884,-3.5882,-3.5905,-3.5907,-3.5914,-3.5941,-3.5927,-3.5948,-3.5966,-3.5942,-3.5975,-3.5974,-3.5988,-3.5989,-3.6015,-3.5987,-3.6007,-3.6012,-3.6018,-3.6028,-3.5872,-3.6016,-3.6016,-3.6015,-3.6015,-3.6015,0,-3.6007,-3.6003,-3.6025,-3.6037,-3.6056,-3.6019,-3.6025,-3.6043,-3.6073,-3.6075,-3.6091,-3.6122,-3.6144,-3.6129,-3.6148,-3.6171,-3.6155,-3.6178,-3.6177,-3.6177,-3.605,-3.6037,-3.619,-3.619,-3.619,-3.619,-3.619,-3.619,-3.609,-3.614,-3.6126,-3.6176,-3.6171,-3.6204,-3.621,-3.6218,-3.6219,-3.6256,-3.6274,-3.6264,-3.6259,-3.6278,-3.6297,-3.6292,-3.6302,-3.6331,-3.632,-3.6203,-3.6186,-3.6169,-3.6157,-3.6333,-3.6333,-3.6445,-3.6446,-3.6447]},{"header":{"parameterUnit":"m.s-1","parameterCategory":1,"la1":30.2991,"la2":30.254,"lo1":-89.0895,"lo2":-89.0444,"dy":0.0017,"dx":0.0017,"nx":28,"ny":28,"refTime":"2023-11-10T03:00:00:Z","depth":0,"parameterNumber":3,"parameterNumberName":"V-component_of_WINDS"},"data":[0,0,0,0,0,0,0,0,0,0,0,0,0,0,0,0,0,0,0,0,0,0,0,0,0,0,0,0,0,0,0,0,0,0,0,0,0,0,0,0,0,0,0,0,0,0,0,0,0,0,0,0,0,0,0,0,0,0,-5.1115,-5.1114,0,-5.1075,-5.1075,-5.1075,-5.1,-5.0999,-5.0998,-5.0996,-5.0956,-5.0956,-5.0957,0,0,0,0,0,0,0,0,0,0,0,0,0,-5.1125,-5.1125,-5.1115,-5.1114,-5.1114,-5.1076,-5.1075,-5.1074,-5.1001,-5.0999,-5.0997,-5.0996,-5.0956,-5.0956,-5.0957,0,0,0,0,0,0,0,0,0,0,0,0,0,-5.1107,-5.1125,-5.1115,-5.1072,-5.1068,-5.1076,-5.1075,-5.1074,-5.1001,-5.0999,-5.0997,-5.0995,-5.0956,-5.0956,-5.0957,-5.1002,0,0,-5.0958,-5.0958,0,0,0,0,0,0,0,0,-5.1108,-5.1106,-5.1079,-5.1075,-5.1071,-5.1041,-5.1064,-5.105,-5.1002,-5.1027,-5.0996,-5.0994,-5.0986,-5.0984,-5.0981,-5.1,-5.0999,-5.0958,-5.0958,-5.0958,-5.0958,0,0,0,0,0,0,0,-5.1109,-5.1108,-5.1099,-5.1079,-5.1074,-5.1055,-5.105,-5.1061,-5.1019,-5.1024,-5.1019,-5.1015,-5.0983,-5.0981,-5.098,-5.0998,-5.0958,-5.0958,-5.0959,-5.0959,-5.105,-5.1053,0,0,0,0,0,0,-5.1117,-5.1109,-5.11,-5.1098,-5.1084,-5.1057,-5.1051,-5.1052,-5.1019,-5.1011,-5.1017,-5.1012,-5.0981,-5.0979,-5.0978,-5.1027,-5.0958,-5.0959,-5.0959,-5.1048,-5.1051,-5.1053,0,0,0,0,0,0,-5.1117,-5.1117,-5.1102,-5.1102,-5.1099,-5.1059,-5.1061,-5.1053,-5.105,-5.1013,-5.1005,-5.1022,-5.098,-5.0977,-5.0996,-5.1025,-5.0959,-5.0959,-5.1046,-5.1049,-5.1052,-5.1127,0,0,0,0,0,0,-5.1118,-5.1117,-5.1135,-5.1103,-5.1099,-5.1122,-5.1063,-5.1054,-5.1051,-5.1044,-5.1016,-5.1009,-5.0978,-5.0996,-5.0997,-5.1024,-5.096,-5.1043,-5.1047,-5.1051,-5.1122,-5.1133,-5.1142,0,0,0,0,0,-5.1119,-5.1158,-5.1136,-5.1135,-5.112,-5.1123,-5.1121,-5.1084,-5.1054,-5.107,-5.1046,-5.101,-5.1022,-5.0999,-5.0999,-5.1027,-5.1041,-5.1046,-5.1051,-5.1118,-5.1131,-5.1142,0,0,0,0,0,0,-5.1194,-5.1153,-5.1128,-5.1158,-5.1145,-5.1111,-5.1131,-5.1099,-5.1094,-5.1087,-5.1042,-5.1036,-5.106,-5.1046,-5.102,-5.1068,-5.1026,-5.1031,-5.1077,-5.1089,-5.1098,-5.1101,-5.096,0,0,0,0,0,-5.1214,-5.1221,-5.1184,-5.1215,-5.1209,-5.1171,-5.1172,-5.1144,-5.1128,-5.1122,-5.1099,-5.1085,-5.1085,-5.1086,-5.1085,-5.112,-5.1112,-5.1139,-5.1149,-5.1158,-5.1162,-5.1178,-5.1189,-5.107,-5.107,-5.1069,0,0,-5.1256,-5.1234,-5.1241,-5.1229,-5.1215,-5.1222,-5.1167,-5.1177,-5.1182,-5.1123,-5.1139,-5.1122,-5.1103,-5.113,-5.1141,-5.1119,-5.1194,-5.1164,-5.1171,-5.1171,-5.1184,-5.1195,-5.1205,-5.1073,-5.1072,-5.1072,0,0,-5.1335,-5.132,-5.1342,-5.133,-5.1309,-5.1284,-5.1289,-5.126,-5.1246,-5.1261,-5.1217,-5.1222,-5.1224,-5.1212,-5.1206,-5.1279,-5.1245,-5.128,-5.1331,-5.1347,-5.1356,-5.1365,-5.1389,-5.1398,-5.1285,-5.1285,-5.1285,0,-5.1389,-5.1398,-5.1358,-5.137,-5.1366,-5.1313,-5.1335,-5.1325,-5.1305,-5.1303,-5.1279,-5.1279,-5.1263,-5.1285,-5.1302,-5.13,-5.1304,-5.1282,-5.1358,-5.1366,-5.1373,-5.1396,-5.1405,-5.129,-5.1289,-5.1289,-5.1288,0,-5.1465,-5.1472,-5.1492,-5.1474,-5.1472,-5.1489,-5.1451,-5.1454,-5.1427,-5.1404,-5.1419,-5.1397,-5.139,-5.1393,-5.1367,-5.1411,-5.1398,-5.1367,-5.1323,-5.1389,-5.141,-5.1418,-5.1296,-5.1294,-5.1293,-5.1292,0,0,-5.159,-5.1548,-5.1557,-5.1547,-5.152,-5.1525,-5.1539,-5.1531,-5.1534,-5.1522,-5.1532,-5.1534,-5.1505,-5.1498,-5.147,-5.1484,-5.1541,-5.1451,-5.145,-5.1467,-5.1586,-5.1609,-5.1619,-5.1519,-5.1521,-5.1522,-5.1587,0,-5.1661,-5.1683,-5.1648,-5.1678,-5.1683,-5.1633,-5.1645,-5.163,-5.1609,-5.1609,-5.1586,-5.1587,-5.155,-5.1545,-5.1557,-5.1532,-5.1564,-5.1527,-5.1526,-5.1527,-5.1531,-5.163,-5.1654,-5.1717,-5.1595,-5.1597,-5.1597,0,-5.1748,-5.174,-5.177,-5.1741,-5.1741,-5.1753,-5.1742,-5.1744,-5.1725,-5.1709,-5.1701,-5.1667,-5.1678,-5.1637,-5.1651,-5.1626,-5.1624,-5.1612,-5.1613,-5.1611,-5.1565,-5.1629,-5.1737,-5.1745,-5.161,-5.1609,-5.1608,0,-5.1833,-5.183,-5.1848,-5.1841,-5.1808,-5.1817,-5.1803,-5.1782,-5.1779,-5.177,-5.1767,-5.1759,-5.1755,-5.1749,-5.1714,-5.1688,-5.1731,-5.1688,-5.1717,-5.1717,-5.1727,-5.1726,-5.1834,-5.1729,-5.1729,-5.1728,-5.1728,0,-5.1916,-5.1937,-5.1885,-5.1896,-5.1917,-5.1875,-5.1897,-5.1878,-5.186,-5.1865,-5.1822,-5.1828,-5.1782,-5.1783,-5.1755,-5.177,-5.1769,-5.1754,-5.1747,-5.1757,-5.1759,-5.1754,-5.1748,-5.1731,-5.173,-5.173,-5.1729,0,-5.2015,-5.1982,-5.1997,-5.1964,-5.1956,-5.1972,-5.1943,-5.1951,-5.1927,-5.1934,-5.1934,-5.1896,-5.1894,-5.1859,-5.185,-5.1831,-5.1856,-5.1841,-5.1863,-5.1857,-5.1887,-5.1884,-5.1994,-5.2006,-5.1895,-5.1896,-5.1897,0,-5.2069,-5.2083,-5.2051,-5.2052,-5.204,-5.2042,-5.2038,-5.1998,-5.1996,-5.1975,-5.1985,-5.198,-5.1973,-5.1973,-5.1944,-5.1937,-5.192,-5.1959,-5.1918,-5.1928,-5.1918,-5.1917,-5.1917,-5.1967,-5.1969,-5.197,-5.1971,0,-5.2168,-5.2151,-5.2148,-5.2138,-5.2135,-5.2126,-5.2114,-5.2117,-5.2073,-5.2073,-5.207,-5.2065,-5.2056,-5.205,-5.2037,-5.2022,-5.1989,-5.1984,-5.199,-5.2,-5.2011,-5.2004,-5.1884,-5.1981,-5.198,-5.1979,-5.1979,-5.1978,-5.2245,-5.2255,-5.2233,-5.2231,-5.2217,-5.2207,-5.2212,-5.2189,-5.2186,-5.2175,-5.2151,-5.2152,-5.2132,-5.2111,-5.2099,-5.2098,-5.2078,-5.2087,-5.2089,-5.2092,-5.2097,-5.2013,-5.2096,-5.2095,-5.2095,-5.2095,-5.2095,0,-5.234,-5.2324,-5.2322,-5.2306,-5.2304,-5.2273,-5.2258,-5.2258,-5.2259,-5.2243,-5.2238,-5.2234,-5.2229,-5.2199,-5.219,-5.2195,-5.218,-5.2194,-5.2193,-5.2189,-5.2116,-5.2111,-5.2207,-5.2207,-5.2207,-5.2207,-5.2207,-5.2207,-5.2389,-5.2404,-5.2384,-5.239,-5.2374,-5.2374,-5.2368,-5.2358,-5.2344,-5.2343,-5.2338,-5.2319,-5.2297,-5.2285,-5.2279,-5.227,-5.2268,-5.2287,-5.2274,-5.2206,-5.2195,-5.2184,-5.2179,-5.2288,-5.2288,-5.2346,-5.2347,-5.2347]}]]